Home   Weather   Stockerau   Past weeks

Flag for Austria Past Weather in Stockerau, Lower Austria, Austria — Yesterday and Last 2 Weeks

Now
46 °F

Overcast.


Feels Like: 46 °F
Forecast: 41 / 51 °F
Wind: 2 mph from North

Location: Wien / Hohe Warte

Current Time: Apr 27, 2017 at 3:36:14 am

Latest Report: Apr 27, 2017 at 2:00 am


Visibility: 11 mi

Pressure: 29.86 "Hg

Humidity: 81%

Dew Point: 40 °F

Location of StockerauLocation

Past Weather in Stockerau — Graph

°F

Stockerau Temperature Yesterday

Maximum temperature yesterday: 61 °F (at 3:00 pm)
Minimum temperature yesterday: 47 °F (at 11:00 pm)
Average temperature yesterday: 53 °F

High & Low Weather Summary for the Past Weeks

 TemperatureHumidityPressure
High70 °F (Apr 25, 3:00 pm)97% (Apr 17, 11:00 pm)30.50 "Hg (Apr 17, 11:00 pm)
Low34 °F (Apr 19, 8:00 am)35% (Apr 16, 12:00 pm)29.65 "Hg (Apr 25, 7:00 pm)
Average48 °F66%30.04 "Hg
* Reported Apr 12 2:00 am — Apr 27 2:00 am, Stockerau, Weather by CustomWeather, © 2017

Note: Actual official high and low records may vary slightly from our data, if they occured in-between our weather recording intervals... More about our weather records

Advertising

Stockerau Weather History for the Previous 24 Hours

Scroll right to see more
 ConditionsComfort  
Time TempWeatherWind HumidityBarometerVisibility
2:00 am
Thu, Apr 27
46 °FOvercast.2 mph81%29.86 "Hg11 mi
1:00 am46 °FCool.2 mph80%29.86 "HgN/A
12:00 am46 °FCool.2 mph79%29.88 "HgN/A
11:00 pm
Wed, Apr 26
47 °FCool.2 mph79%29.88 "HgN/A
10:00 pm47 °FOvercast.2 mph79%29.87 "Hg9 mi
9:00 pm48 °FOvercast.1 mph79%29.86 "Hg9 mi
8:00 pm48 °FOvercast.5 mph80%29.83 "Hg9 mi
7:00 pm49 °FCool.5 mph78%29.80 "HgN/A
6:00 pm54 °FOvercast.5 mph72%29.78 "Hg12 mi
5:00 pm57 °FOvercast.6 mph67%29.74 "Hg11 mi
4:00 pm59 °FOvercast.5 mph65%29.73 "Hg11 mi
3:00 pm61 °FOvercast.5 mph62%29.71 "Hg11 mi
2:00 pm61 °FOvercast.2 mph60%29.71 "Hg11 mi
1:00 pm59 °FOvercast.3 mph66%29.71 "Hg10 mi
12:00 pm56 °FOvercast.3 mph72%29.72 "Hg10 mi
11:00 am56 °FOvercast.3 mph72%29.71 "Hg11 mi
10:00 am54 °FOvercast.2 mph76%29.72 "Hg13 mi
9:00 am52 °FOvercast.2 mph78%29.72 "Hg16 mi
8:00 am51 °FOvercast.2 mph82%29.72 "Hg14 mi
7:00 am49 °FOvercast.3 mph83%29.72 "Hg19 mi
6:00 am49 °FCool.3 mph83%29.71 "HgN/A
5:00 am48 °FCool.1 mph83%29.72 "HgN/A
4:00 am49 °FCool.1 mph79%29.72 "HgN/A
3:00 am50 °FCool.2 mph76%29.74 "HgN/A
Weather by CustomWeather, © 2017

See weather overviewHow to use our weather pages